Location: Castro Valley
(37.6940°N, 122.0850°W)
Time: 04:48:47
(UTC-07:00)

PANSAT - Visible Passes

Search period start: 25 March 2017 00:00
Search period end: 04 April 2017 00:00
Orbit: 477 x 485 km, 28.5° (Epoch: 23 March)

Date Brightness Start Highest point End Pass type
(mag) Time Alt. Az. Time Alt. Az. Time Alt. Az.
25 Mar 10.0 05:35:37 10° S 05:36:41 11° SSE 05:37:58 10° SE visible
26 Mar 10.2 05:07:51 11° SSE 05:07:51 11° SSE 05:08:38 10° SE visible
27 Mar 9.4 06:14:20 10° SW 06:17:07 19° S 06:19:53 10° SE visible
28 Mar 9.3 05:46:23 17° SSW 05:47:42 19° S 05:50:30 10° SE visible
29 Mar 9.4 05:18:34 19° S 05:18:34 19° S 05:21:05 10° SE visible
30 Mar 10.0 04:50:46 14° SE 04:50:46 14° SE 04:51:41 10° SE visible
30 Mar 9.5 06:25:39 10° SW 06:28:11 17° S 06:30:43 10° SSE visible
31 Mar 9.4 05:57:10 14° SW 05:58:46 17° S 06:01:18 10° SSE visible
01 Apr 9.4 05:29:27 17° S 05:29:27 17° S 05:31:52 10° SSE visible
02 Apr 10.0 05:01:49 13° SSE 05:01:49 13° SSE 05:02:27 10° SSE visible
